sat.trackr.live / text

‹ back to catalog

STARLINK-3304

NORAD 50161 · 2021-125F

PAYLOAD ACTIVE UNKNOWN

§ Identity

Operator
Country
US
Launch date
2021-12-18
Launch site
AFWTR
Launch vehicle
Mass (kg)
RCS (m²)

Purposes: comms

External: N2YO · Heavens-Above · Gunter

§ Orbital elements

Epoch: 2026-09-20T01:39:15.293664Z

Period
93.79 min
Inclination
53.1593°
Eccentricity
0.0001465
Mean motion
15.35282566 rev/d
Perigee alt
459.1 km
Apogee alt
461.1 km
Semi-major
6,838.2 km
B*
-4.2904e-4
RAAN
93.3900°
Arg perigee
52.5914°
Mean anomaly
307.5222°
Rev number
26,597

§ Raw data

STARLINK-33041 50161U 21125F   26263.06892701 -.00015260  00000+0 -42904-3 0  99932 50161  53.1593  93.3900 0001465  52.5914 307.5222 15.35282566265970

JSON: /api/v1/satellites/50161 · /tle

For live sub-satellite position, see the globe view (requires WebGL).

§ Visibility from observer

Set your observer location to see the next 7 days of passes ≥ 10°. The values pass through the URL so the page stays shareable.

No JS? Fill the form by hand. The geolocation button needs JavaScript.